[[{"header":{"parameterUnit":"m.s-1","parameterCategory":1,"la1":30.2991,"la2":30.254,"lo1":-89.0895,"lo2":-89.0444,"dy":0.0017,"dx":0.0017,"nx":28,"ny":28,"refTime":"2024-10-10T21:00:00:Z","depth":0,"parameterNumber":2,"parameterNumberName":"U-component_of_WINDS"},"data":[0,0,0,0,0,0,0,0,0,0,0,0,0,0,0,0,0,0,0,0,0,0,0,0,0,0,0,0,0,0,0,0,0,0,0,0,0,0,0,0,0,0,0,0,0,0,0,0,0,0,0,0,0,0,0,0,0,0,-1.8292,-1.8293,0,-1.8436,-1.8438,-1.844,-1.8432,-1.843,-1.8428,-1.8426,-1.8581,-1.8587,-1.8593,0,0,0,0,0,0,0,0,0,0,0,0,0,-1.8015,-1.802,-1.8292,-1.8293,-1.8295,-1.8436,-1.8438,-1.844,-1.8433,-1.843,-1.8428,-1.8425,-1.8579,-1.8587,-1.8594,0,0,0,0,0,0,0,0,0,0,0,0,0,-1.8145,-1.8022,-1.8291,-1.8308,-1.8311,-1.8436,-1.8438,-1.8441,-1.8433,-1.843,-1.8427,-1.8424,-1.8577,-1.8586,-1.8595,-1.8714,0,0,-1.8623,-1.8627,0,0,0,0,0,0,0,0,-1.8138,-1.8155,-1.8304,-1.8307,-1.8311,-1.8413,-1.8397,-1.8533,-1.8434,-1.8387,-1.8426,-1.8423,-1.8528,-1.8541,-1.8576,-1.8721,-1.8728,-1.8623,-1.8629,-1.8633,-1.8635,0,0,0,0,0,0,0,-1.8129,-1.8149,-1.8349,-1.8306,-1.8311,-1.8311,-1.8326,-1.8423,-1.8474,-1.8391,-1.8391,-1.8408,-1.853,-1.8567,-1.8579,-1.873,-1.8623,-1.8631,-1.8637,-1.864,-1.8981,-1.8984,0,0,0,0,0,0,-1.8115,-1.8142,-1.8345,-1.8353,-1.8215,-1.8318,-1.8335,-1.8384,-1.8473,-1.8483,-1.841,-1.8407,-1.8553,-1.8568,-1.8585,-1.873,-1.8633,-1.8641,-1.8647,-1.8977,-1.8981,-1.8985,0,0,0,0,0,0,-1.8109,-1.8133,-1.8339,-1.8248,-1.8274,-1.8326,-1.8381,-1.8388,-1.8425,-1.8487,-1.8497,-1.8438,-1.8551,-1.8572,-1.8681,-1.8735,-1.8645,-1.8654,-1.8973,-1.8978,-1.8983,-1.9021,0,0,0,0,0,0,-1.8101,-1.8131,-1.8176,-1.8248,-1.8278,-1.8431,-1.8384,-1.8393,-1.844,-1.8437,-1.8516,-1.8526,-1.855,-1.8668,-1.869,-1.8746,-1.8661,-1.8968,-1.8975,-1.8982,-1.9015,-1.9027,-1.9037,0,0,0,0,0,-1.8091,-1.8182,-1.8178,-1.8202,-1.8335,-1.8434,-1.8452,-1.8475,-1.8444,-1.849,-1.853,-1.8524,-1.8725,-1.8679,-1.8704,-1.8764,-1.8965,-1.8973,-1.8981,-1.901,-1.9025,-1.9037,0,0,0,0,0,0,-1.8117,-1.8192,-1.8188,-1.8305,-1.8363,-1.8433,-1.8492,-1.849,-1.856,-1.8554,-1.8583,-1.8601,-1.8711,-1.8748,-1.8695,-1.8883,-1.8841,-1.8855,-1.8855,-1.8869,-1.888,-1.8869,-1.8668,0,0,0,0,0,-1.8135,-1.8208,-1.827,-1.8367,-1.8396,-1.8439,-1.8483,-1.8496,-1.8558,-1.8584,-1.8632,-1.8694,-1.8772,-1.8822,-1.8897,-1.902,-1.9038,-1.9074,-1.9084,-1.9093,-1.9105,-1.9173,-1.919,-1.9012,-1.9012,-1.9011,0,0,-1.8176,-1.8226,-1.827,-1.8373,-1.842,-1.8496,-1.846,-1.8542,-1.86,-1.8597,-1.8703,-1.874,-1.8812,-1.8929,-1.8983,-1.8964,-1.9158,-1.9103,-1.911,-1.9117,-1.9183,-1.92,-1.9215,-1.9017,-1.9016,-1.9015,0,0,-1.8288,-1.8332,-1.8418,-1.8464,-1.8535,-1.8562,-1.8582,-1.8653,-1.8677,-1.8783,-1.8782,-1.8852,-1.8985,-1.9036,-1.9079,-1.921,-1.9207,-1.9233,-1.9291,-1.9357,-1.9371,-1.9384,-1.9431,-1.9448,-1.9245,-1.9245,-1.9245,0,-1.833,-1.8442,-1.8462,-1.8545,-1.8591,-1.8589,-1.8677,-1.8722,-1.8814,-1.8847,-1.8823,-1.8989,-1.9038,-1.9166,-1.9198,-1.9233,-1.9258,-1.9225,-1.9367,-1.938,-1.9392,-1.9438,-1.9455,-1.9248,-1.9247,-1.9247,-1.9247,0,-1.8491,-1.8569,-1.863,-1.8716,-1.8768,-1.8853,-1.8888,-1.8939,-1.8947,-1.8978,-1.9086,-1.9144,-1.923,-1.9261,-1.9271,-1.9392,-1.9378,-1.9361,-1.9319,-1.9412,-1.9455,-1.9472,-1.9252,-1.9251,-1.925,-1.9249,0,0,-1.8624,-1.8719,-1.8741,-1.878,-1.8856,-1.8918,-1.9003,-1.9085,-1.9129,-1.9193,-1.9266,-1.9377,-1.9361,-1.9411,-1.9426,-1.9484,-1.9584,-1.946,-1.9462,-1.9482,-1.9722,-1.9735,-1.9755,-1.9582,-1.9586,-1.9588,-1.9716,0,-1.8745,-1.8893,-1.8913,-1.9045,-1.9118,-1.9117,-1.9192,-1.9248,-1.9278,-1.9347,-1.9381,-1.946,-1.9433,-1.9462,-1.952,-1.956,-1.9633,-1.9551,-1.9653,-1.9656,-1.9635,-1.9777,-1.9792,-1.9909,-1.9733,-1.9736,-1.9738,0,-1.8906,-1.897,-1.9109,-1.9175,-1.9206,-1.9273,-1.9349,-1.9413,-1.9478,-1.9496,-1.955,-1.9558,-1.9648,-1.9602,-1.9727,-1.9671,-1.9714,-1.974,-1.9745,-1.9756,-1.9703,-1.9793,-1.9948,-1.9965,-1.9765,-1.9763,-1.9761,0,-1.899,-1.9112,-1.9211,-1.9244,-1.9323,-1.937,-1.9405,-1.9466,-1.9514,-1.9581,-1.9613,-1.9691,-1.9734,-1.9796,-1.9825,-1.9788,-1.9949,-1.9905,-1.9968,-1.9968,-2.0003,-2.0001,-2.0167,-2.0029,-2.0029,-2.0029,-2.0028,0,-1.9123,-1.9208,-1.9249,-1.931,-1.9406,-1.9429,-1.9523,-1.9558,-1.9612,-1.9681,-1.9685,-1.975,-1.9785,-1.9856,-1.988,-1.998,-2.0,-2.0019,-2.0024,-2.0019,-2.0016,-2.0048,-2.0041,-2.0033,-2.0032,-2.0032,-2.0031,0,-1.9233,-1.9264,-1.9372,-1.9437,-1.9456,-1.9523,-1.958,-1.964,-1.967,-1.9757,-1.9779,-1.9826,-1.991,-1.9945,-2.0048,-2.0064,-2.018,-2.0179,-2.0158,-2.016,-2.0221,-2.0215,-2.0415,-2.0442,-2.0285,-2.0287,-2.0288,0,-1.9317,-1.9382,-1.9453,-1.9498,-1.9534,-1.9608,-1.9655,-1.9681,-1.9731,-1.9808,-1.986,-1.9942,-2.001,-2.0144,-2.0189,-2.0268,-2.027,-2.0334,-2.0282,-2.0275,-2.0272,-2.0268,-2.0275,-2.0344,-2.0346,-2.0347,-2.0348,0,-1.9461,-1.9473,-1.9541,-1.9614,-1.967,-1.973,-1.9788,-1.9825,-1.986,-1.9916,-2.0,-2.0053,-2.0157,-2.024,-2.0321,-2.036,-2.0361,-2.0364,-2.0383,-2.0379,-2.0364,-2.0373,-2.0185,-2.036,-2.0359,-2.0358,-2.0357,-2.0357,-1.9562,-1.9619,-1.9678,-1.9753,-1.9799,-1.9853,-1.9912,-1.9948,-2.0017,-2.0102,-2.0114,-2.0204,-2.0267,-2.0376,-2.0418,-2.0491,-2.0475,-2.0502,-2.051,-2.0516,-2.052,-2.0351,-2.0506,-2.0506,-2.0505,-2.0505,-2.0505,0,-1.9707,-1.9744,-1.9813,-1.9893,-1.9952,-1.9944,-2.0008,-2.0059,-2.0138,-2.0195,-2.026,-2.0357,-2.0438,-2.0488,-2.0569,-2.0618,-2.062,-2.0638,-2.0636,-2.0645,-2.053,-2.0505,-2.0635,-2.0635,-2.0635,-2.0635,-2.0635,-2.0635,-1.979,-1.9886,-1.9905,-2.0025,-2.0062,-2.0149,-2.0186,-2.0236,-2.0282,-2.0389,-2.0454,-2.0486,-2.0541,-2.0626,-2.07,-2.0713,-2.0743,-2.0763,-2.0775,-2.0667,-2.0653,-2.064,-2.0617,-2.0769,-2.0769,-2.0884,-2.0885,-2.0886]},{"header":{"parameterUnit":"m.s-1","parameterCategory":1,"la1":30.2991,"la2":30.254,"lo1":-89.0895,"lo2":-89.0444,"dy":0.0017,"dx":0.0017,"nx":28,"ny":28,"refTime":"2024-10-10T21:00:00:Z","depth":0,"parameterNumber":3,"parameterNumberName":"V-component_of_WINDS"},"data":[0,0,0,0,0,0,0,0,0,0,0,0,0,0,0,0,0,0,0,0,0,0,0,0,0,0,0,0,0,0,0,0,0,0,0,0,0,0,0,0,0,0,0,0,0,0,0,0,0,0,0,0,0,0,0,0,0,0,0.9179,0.9178,0,0.902,0.9018,0.9016,0.8936,0.8936,0.8936,0.8936,0.8764,0.8759,0.8755,0,0,0,0,0,0,0,0,0,0,0,0,0,0.9407,0.9403,0.9179,0.9177,0.9175,0.902,0.9018,0.9016,0.8936,0.8936,0.8936,0.8936,0.8765,0.876,0.8754,0,0,0,0,0,0,0,0,0,0,0,0,0,0.9284,0.9402,0.918,0.9117,0.911,0.9021,0.9018,0.9015,0.8936,0.8936,0.8936,0.8936,0.8767,0.876,0.8753,0.8712,0,0,0.8732,0.873,0,0,0,0,0,0,0,0,0.9291,0.9275,0.9128,0.9121,0.9113,0.8998,0.9035,0.8913,0.8936,0.9002,0.8936,0.8936,0.8841,0.8828,0.8798,0.8703,0.8696,0.8732,0.8728,0.8725,0.8723,0,0,0,0,0,0,0,0.9299,0.9282,0.9116,0.9126,0.9117,0.9094,0.9077,0.9011,0.8923,0.8996,0.899,0.8973,0.8837,0.8805,0.8793,0.8694,0.8732,0.8726,0.8722,0.8719,0.8556,0.8556,0,0,0,0,0,0,0.9319,0.9289,0.9121,0.9111,0.9204,0.909,0.9071,0.9035,0.8924,0.8907,0.8973,0.8969,0.8816,0.8801,0.8787,0.873,0.8725,0.8718,0.8714,0.8556,0.8556,0.8556,0,0,0,0,0,0,0.9324,0.9305,0.9127,0.9199,0.9174,0.9086,0.9047,0.9032,0.9,0.8906,0.8889,0.8957,0.8816,0.8797,0.8731,0.8723,0.8715,0.8709,0.8556,0.8556,0.8556,0.8617,0,0,0,0,0,0,0.9331,0.9307,0.9292,0.9199,0.9171,0.9077,0.9046,0.9029,0.8989,0.8983,0.8887,0.8871,0.8814,0.8742,0.8725,0.8713,0.8704,0.8557,0.8556,0.8556,0.8615,0.8619,0.8622,0,0,0,0,0,0.934,0.9314,0.9292,0.9272,0.9151,0.9077,0.9061,0.8999,0.8989,0.8972,0.8912,0.8874,0.8727,0.8736,0.8716,0.8702,0.8557,0.8556,0.8556,0.8614,0.8618,0.8622,0,0,0,0,0,0,0.9405,0.93,0.9275,0.9219,0.9158,0.9064,0.904,0.9006,0.8944,0.894,0.8864,0.8843,0.8784,0.8737,0.8748,0.8656,0.8638,0.8634,0.8689,0.8692,0.8696,0.8707,0.8698,0,0,0,0,0,0.9414,0.9365,0.9275,0.9234,0.9205,0.9129,0.9094,0.9052,0.8985,0.8957,0.8893,0.8826,0.8765,0.8726,0.8665,0.8608,0.8585,0.8589,0.8592,0.8595,0.8592,0.8558,0.8558,0.8554,0.8554,0.8554,0,0,0.9429,0.9366,0.934,0.9246,0.9194,0.9143,0.9107,0.9055,0.9015,0.8948,0.8884,0.8834,0.8754,0.8694,0.8664,0.8652,0.8588,0.8595,0.8598,0.8592,0.8557,0.8558,0.8558,0.8554,0.8554,0.8554,0,0,0.9432,0.938,0.9341,0.929,0.9213,0.9162,0.9153,0.9064,0.9029,0.8964,0.8913,0.8864,0.876,0.8706,0.8665,0.8649,0.8611,0.8631,0.8647,0.8615,0.8615,0.8615,0.8608,0.8607,0.8628,0.8628,0.8628,0,0.946,0.9385,0.9324,0.9275,0.9234,0.9175,0.9133,0.9086,0.8991,0.8963,0.8953,0.8823,0.8765,0.869,0.8687,0.8656,0.8641,0.8641,0.8621,0.862,0.8619,0.8611,0.8609,0.8631,0.863,0.863,0.863,0,0.9423,0.9371,0.9348,0.9262,0.9219,0.9174,0.9103,0.9067,0.9029,0.8979,0.8912,0.8842,0.8765,0.8744,0.8705,0.8664,0.8659,0.8636,0.8616,0.8623,0.8615,0.8611,0.8635,0.8634,0.8633,0.8632,0,0,0.946,0.9344,0.9336,0.9296,0.9207,0.9165,0.9116,0.9044,0.9014,0.8951,0.8907,0.8822,0.88,0.8753,0.8708,0.868,0.8671,0.8659,0.8656,0.8663,0.8619,0.8637,0.8635,0.8646,0.8645,0.8644,0.8626,0,0.945,0.9364,0.9308,0.9242,0.9193,0.9137,0.9094,0.9034,0.8986,0.8934,0.888,0.8821,0.8797,0.8768,0.8738,0.8678,0.8661,0.8679,0.8601,0.8599,0.8622,0.863,0.8649,0.8634,0.8622,0.8621,0.8621,0,0.9426,0.9368,0.9299,0.9217,0.9194,0.9157,0.9087,0.904,0.8969,0.8936,0.8886,0.884,0.8784,0.8771,0.8691,0.8705,0.867,0.8636,0.8634,0.8623,0.861,0.8619,0.8628,0.8626,0.8615,0.8616,0.8616,0,0.946,0.9364,0.931,0.9278,0.9181,0.9156,0.9114,0.9044,0.9004,0.8942,0.8915,0.8847,0.8808,0.8755,0.8691,0.8688,0.8618,0.8599,0.8586,0.8588,0.8573,0.8574,0.8576,0.8553,0.8553,0.8553,0.8553,0,0.9453,0.9413,0.9325,0.9291,0.9244,0.9179,0.9133,0.9085,0.9024,0.8978,0.8925,0.8883,0.8802,0.8749,0.8699,0.864,0.8623,0.8593,0.858,0.8597,0.8601,0.8572,0.8571,0.8552,0.8552,0.8552,0.8553,0,0.9482,0.9422,0.9359,0.9273,0.9251,0.9219,0.9144,0.9108,0.9059,0.9002,0.8984,0.8905,0.884,0.8773,0.8683,0.865,0.8592,0.8575,0.8617,0.861,0.86,0.8602,0.8582,0.8575,0.8559,0.8559,0.8559,0,0.9481,0.9449,0.9361,0.9329,0.9289,0.9236,0.9197,0.9132,0.9092,0.9011,0.8984,0.8917,0.8859,0.8758,0.869,0.8621,0.8601,0.8599,0.859,0.8608,0.8599,0.8602,0.8597,0.8601,0.8602,0.8602,0.8602,0,0.9486,0.9458,0.9405,0.9342,0.9297,0.9243,0.9187,0.9162,0.9085,0.9043,0.8979,0.8934,0.8845,0.8778,0.8702,0.8655,0.8615,0.8606,0.8599,0.8616,0.8642,0.8627,0.8624,0.8606,0.8606,0.8606,0.8605,0.8605,0.9499,0.9468,0.9402,0.9344,0.9296,0.9245,0.9208,0.9154,0.91,0.9025,0.8989,0.8924,0.8853,0.8748,0.8702,0.8648,0.8636,0.8627,0.8624,0.8622,0.8626,0.8652,0.8634,0.8634,0.8634,0.8633,0.8633,0,0.95,0.9456,0.9404,0.9328,0.9283,0.9254,0.919,0.9152,0.9097,0.9036,0.8982,0.8907,0.8841,0.877,0.8699,0.867,0.865,0.8653,0.8654,0.8644,0.8641,0.8654,0.8671,0.8671,0.8671,0.8671,0.8671,0.8671,0.9496,0.9442,0.9407,0.9328,0.9282,0.922,0.9186,0.9138,0.909,0.901,0.8956,0.8912,0.8846,0.877,0.8708,0.8689,0.8664,0.8673,0.8648,0.8647,0.8644,0.8641,0.8652,0.8669,0.8669,0.8655,0.8654,0.8654]}]]